Theta_e
324 324 323 321 321 323 323 324 323 324 323 322 322 321 320 320 321 323 322 319 320 321 321 320 321 323 325 325 325 323 319 317 319 322 324 322 320 321 323 326 327 326
325 324 323 322 323 323 323 323 323 323 322 320 320 320 320 320 319 322 322 319 318 320 320 320 319 320 322 322 323 323 318 315 317 319 319 317 316 318 322 325 326 326
324 323 322 322 323 322 322 323 324 323 320 319 320 320 320 320 319 320 321 319 317 318 319 318 317 317 317 317 320 320 318 315 316 316 315 315 316 317 319 321 322 323
323 322 321 321 321 322 323 324 323 321 319 319 320 319 319 319 318 319 320 319 317 317 317 316 315 316 316 315 316 318 316 315 315 316 315 315 315 316 317 317 315 316
323 322 322 321 322 322 323 324 323 320 319 319 319 318 318 318 318 318 319 318 318 316 315 315 315 316 316 315 315 316 316 315 315 315 314 314 314 314 316 317 316 314
323 323 323 323 322 322 323 324 322 319 318 318 318 317 317 317 318 318 318 318 317 316 314 313 313 314 315 314 314 314 315 315 314 314 313 313 313 313 314 317 317 315
323 323 323 323 322 321 322 322 321 319 318 318 317 316 317 317 317 317 317 317 317 316 314 314 313 314 314 314 314 314 315 315 315 315 315 315 314 314 314 315 315 315
323 323 322 321 321 321 322 321 320 319 318 317 316 316 316 316 315 316 316 317 316 316 315 315 314 314 314 314 314 314 315 315 316 316 317 317 316 315 314 314 314 314
324 323 321 321 321 321 321 321 320 319 318 317 316 317 316 316 315 316 317 316 316 316 315 315 315 314 314 314 314 315 315 316 316 315 315 316 316 315 315 314 313 314
323 322 321 321 321 320 320 320 319 319 318 317 317 318 317 317 316 316 316 316 316 316 316 316 316 315 315 315 315 315 316 316 316 315 314 315 315 314 314 314 313 313
323 321 321 321 321 320 320 320 319 319 319 318 318 318 318 318 317 316 316 316 317 317 316 317 317 316 316 317 316 315 315 316 315 315 315 315 314 314 313 313 312 313
323 322 322 321 321 320 320 320 320 319 319 319 319 318 318 318 318 317 317 317 318 317 317 317 318 317 316 317 317 315 315 315 315 314 315 314 314 314 314 314 314 313
323 323 322 322 321 320 320 320 319 319 319 319 318 318 318 319 318 318 318 318 318 318 318 318 319 318 316 316 317 317 316 315 315 316 316 315 314 315 316 316 317 315
324 324 322 322 321 320 320 320 320 320 319 319 318 317 317 318 318 317 318 318 318 318 318 319 319 319 318 317 318 318 318 317 317 318 318 316 316 317 317 317 317 317
325 325 323 321 321 321 321 322 321 321 320 319 319 317 316 317 318 317 317 318 318 318 318 319 319 319 319 319 319 319 319 319 319 319 319 319 319 319 318 318 318 318
324 325 324 322 321 321 322 322 321 321 320 319 320 319 317 317 318 318 317 317 318 318 318 318 319 320 320 320 320 320 320 320 320 320 321 321 321 320 320 320 320 319
323 324 324 323 321 321 321 320 320 321 320 320 321 321 320 320 320 319 318 318 318 319 319 319 319 320 320 320 321 321 322 322 322 322 322 322 321 321 321 321 321 321
322 322 323 323 322 322 322 321 321 321 322 322 322 322 321 321 321 320 319 319 320 319 320 320 320 319 320 319 320 320 321 322 322 322 322 322 322 322 321 320 320 319
321 321 322 322 321 322 322 321 321 321 322 322 323 323 322 322 321 321 320 320 320 320 319 319 319 319 320 319 319 319 319 320 321 321 321 322 322 321 321 321 320 319
321 321 321 320 319 320 321 321 321 321 321 322 322 323 323 322 322 321 321 320 320 320 320 319 320 320 320 319 319 319 319 320 321 321 321 320 319 319 320 320 320 319
317 318 319 320 320 320 320 320 321 320 320 321 321 322 322 322 322 321 321 321 321 321 320 320 320 320 320 320 320 319 319 320 320 320 319 317 316 317 319 319 318 318
309 311 313 316 319 320 320 320 320 320 320 320 320 321 321 321 321 321 321 321 320 321 321 320 320 320 320 320 319 319 319 318 319 319 318 317 317 317 318 318 317 317
305 305 306 308 312 314 316 316 316 316 318 321 321 322 321 321 320 320 321 321 321 321 321 321 320 321 321 320 319 318 318 317 318 318 317 317 317 318 318 318 316 316
304 304 304 304 306 308 309 310 309 309 312 315 319 321 321 321 321 321 321 321 321 320 320 320 320 320 321 320 320 319 319 318 318 318 318 318 318 317 318 318 316 316
303 303 303 303 304 305 306 306 306 306 307 309 311 313 315 315 317 319 320 321 320 319 318 318 318 319 319 320 320 320 320 320 319 318 318 318 317 317 319 318 317 317
303 303 303 303 303 303 304 304 305 305 306 307 307 308 308 308 309 311 314 317 318 319 319 318 318 318 319 319 319 318 319 319 319 318 318 318 317 318 319 318 316 317
Wind_Speed
25 25 23 22 22 22 22 22 20 17 14 13 14 14 14 14 14 14 13 14 15 17 16 13 12 12 12 12 12 14 15 15 13 13 14 15 14 12 11 11 12 12
25 24 23 22 22 21 21 20 18 16 14 14 15 14 14 13 13 14 15 15 15 16 15 12 11 11 11 12 12 14 15 16 16 16 17 17 16 14 13 13 13 13
25 24 23 23 21 20 20 19 18 16 16 17 17 15 14 13 12 14 16 15 15 15 14 12 11 12 13 14 14 15 16 16 17 17 17 17 17 18 18 17 17 16
25 24 22 22 21 20 20 21 20 19 19 20 18 16 15 14 14 15 16 15 15 15 14 13 13 14 15 15 16 17 17 16 16 16 16 16 16 18 20 20 20 20
24 22 21 21 21 20 20 21 22 21 21 21 19 17 16 16 16 17 16 15 14 14 13 13 14 15 14 15 16 18 18 17 15 15 15 16 15 16 17 18 19 20
22 21 21 21 20 20 19 20 22 22 22 20 18 17 17 17 17 16 16 15 15 14 14 14 15 15 15 15 17 18 19 18 16 16 17 18 17 16 16 17 17 17
21 20 20 20 20 19 18 20 22 22 21 19 18 18 18 17 16 16 16 16 16 15 15 15 16 17 16 16 17 19 19 18 17 17 17 17 17 16 16 17 17 16
19 18 21 20 19 18 17 20 22 21 20 19 18 18 17 16 16 16 15 16 17 17 16 16 17 17 17 17 18 19 19 18 17 16 15 15 15 14 14 15 16 15
19 21 22 21 19 18 17 18 20 21 19 19 19 19 17 16 16 16 16 17 18 17 17 17 17 17 17 17 17 17 17 16 15 15 15 15 15 14 13 13 14 14
21 23 23 22 20 18 15 16 20 21 20 20 20 19 18 17 16 16 17 18 18 17 17 16 16 16 16 15 15 16 17 16 16 15 15 15 15 15 14 13 13 13
21 21 21 21 18 15 16 19 21 21 20 20 20 19 18 17 17 16 17 18 18 17 17 16 15 16 16 14 14 17 17 17 16 15 14 14 13 13 12 12 11 11
18 18 18 18 16 16 19 20 19 20 20 19 18 19 18 17 17 18 18 18 18 17 18 18 16 16 17 15 14 16 17 16 15 14 13 14 13 11 10 9 9 10
16 16 17 18 19 20 20 19 19 20 20 19 19 20 20 18 18 19 18 19 19 19 19 20 18 16 17 17 16 15 16 16 16 14 13 15 14 12 11 10 9 9
17 17 18 19 21 21 20 19 20 20 19 18 18 20 22 20 19 21 20 19 21 21 20 21 19 17 18 19 18 17 16 16 16 14 14 15 15 13 12 11 10 11
18 19 21 21 21 21 20 19 19 18 17 17 15 17 21 20 18 19 20 19 19 21 22 22 21 19 19 20 20 19 18 17 17 16 15 16 15 14 13 13 12 13
16 19 22 21 20 20 19 18 17 15 14 14 13 14 17 18 17 18 19 17 17 19 21 22 22 21 20 20 19 19 18 18 18 17 16 15 15 15 14 14 14 14
11 14 16 17 18 17 16 16 15 13 10 10 9 9 12 15 16 18 18 16 16 16 17 20 21 20 19 19 18 19 19 18 18 17 16 15 15 15 15 15 15 15
8 8 9 11 13 14 13 12 11 10 9 7 7 6 8 10 13 15 16 16 15 15 15 16 17 17 17 17 17 18 18 18 18 18 17 17 16 15 15 16 17 17
7 5 5 5 7 8 8 8 7 7 7 6 5 4 4 6 9 11 13 14 15 15 15 14 14 14 15 14 15 16 17 18 18 18 17 16 16 15 16 16 17 18
6 3 1 2 5 5 4 5 5 5 5 5 5 4 3 4 5 7 9 11 12 13 13 14 14 14 13 13 14 15 16 17 17 17 16 15 16 17 18 18 18 18
13 10 6 4 4 4 3 3 3 3 3 4 5 6 7 6 5 6 8 9 10 11 12 13 14 14 14 15 16 17 17 18 18 18 17 17 18 19 19 19 18 19
22 20 17 13 9 7 6 4 3 3 2 1 3 5 6 6 6 8 10 11 11 12 14 14 13 13 14 15 17 18 18 18 19 19 18 18 19 19 19 18 17 18
24 24 24 21 18 15 12 10 9 9 7 5 6 6 6 6 6 8 10 11 12 13 15 16 15 14 15 16 16 17 17 17 19 19 19 19 20 19 18 17 16 16
22 22 22 22 20 19 16 15 14 14 12 9 7 8 9 10 11 11 12 12 12 13 14 16 16 15 16 17 17 17 17 17 18 19 20 20 20 19 17 15 14 15
20 20 20 20 19 18 17 17 17 16 15 13 10 8 8 9 9 11 13 14 14 14 15 16 16 16 15 17 17 18 18 17 17 19 19 19 19 19 17 15 15 14
18 18 18 18 17 16 16 16 17 16 15 14 13 12 11 11 10 10 11 13 15 16 17 17 16 15 14 16 16 17 18 18 18 19 18 17 17 18 17 16 16 16
Wind_Direction
172 171 170 168 164 165 166 164 163 163 166 169 166 163 162 160 160 158 146 137 142 147 146 144 144 145 144 142 139 131 120 115 119 128 129 122 119 122 127 138 146 150
175 173 171 169 165 167 170 168 167 167 167 168 165 162 163 164 165 164 153 139 138 145 147 148 148 151 152 150 150 141 126 117 118 123 123 115 111 113 116 122 128 134
174 172 171 170 168 170 173 173 171 168 163 162 163 164 166 168 165 164 158 146 139 143 149 151 148 147 146 146 148 145 136 125 123 124 122 116 112 111 111 113 112 116
171 170 168 166 167 171 175 174 171 166 163 164 166 168 170 170 162 158 159 154 146 145 149 151 148 146 145 144 145 146 142 135 133 134 129 124 122 118 116 114 110 108
168 166 165 164 168 173 175 174 170 165 164 165 166 167 167 166 161 158 157 157 155 153 154 156 156 156 157 155 151 149 147 143 145 147 138 131 131 129 126 125 118 112
165 164 165 167 172 174 172 171 168 166 165 164 165 166 165 164 164 164 162 161 160 157 156 157 160 162 163 162 158 153 150 146 145 143 136 131 132 134 136 137 131 124
166 167 169 169 171 172 170 167 166 166 165 165 166 166 166 167 170 172 169 165 162 160 158 158 159 160 161 160 157 153 150 147 145 142 137 134 134 134 137 141 140 135
167 168 169 167 167 166 163 163 167 167 166 166 167 167 168 170 171 172 171 168 166 166 167 166 164 164 165 163 157 153 152 151 150 151 148 146 144 140 138 140 141 140
163 167 167 165 162 157 155 163 170 169 168 170 170 169 170 171 170 172 174 173 171 171 173 172 170 169 169 168 164 159 158 158 159 158 155 156 156 152 149 147 145 144
157 164 165 162 158 154 161 176 177 174 173 173 172 171 172 171 172 174 174 174 175 177 179 179 176 175 174 175 176 172 166 163 166 167 163 162 162 161 163 164 161 155
159 163 162 159 156 160 175 182 179 177 177 175 172 172 173 175 176 177 175 175 179 182 183 182 180 181 181 178 176 176 172 168 171 174 173 171 169 169 171 174 176 171
158 160 156 155 161 174 183 183 181 180 178 176 174 173 177 182 184 186 186 184 183 183 183 184 183 186 186 179 171 174 177 177 176 176 178 182 181 177 174 174 177 179
156 158 158 161 170 179 184 185 185 186 184 181 180 177 178 184 188 191 194 194 191 186 185 188 187 185 184 181 179 180 181 180 180 179 179 183 184 181 181 183 182 184
157 160 167 174 177 180 185 186 186 190 190 186 185 182 182 186 190 192 195 200 199 195 192 192 190 188 187 186 186 187 184 182 184 186 181 179 181 182 187 192 194 195
155 166 175 178 177 179 184 185 186 192 194 190 190 189 188 192 195 196 200 206 206 202 199 197 195 195 195 194 193 191 191 191 192 194 192 187 187 188 192 197 197 199
159 173 177 174 172 175 180 182 183 189 194 195 200 202 201 203 206 206 209 213 212 206 203 201 200 199 197 197 197 195 195 195 195 198 200 200 200 199 201 204 205 207
160 176 178 176 176 176 178 178 177 176 178 185 196 207 211 212 215 214 211 211 211 206 202 202 202 202 201 200 201 200 199 198 199 203 207 210 215 217 218 219 221 225
144 165 172 176 179 177 174 173 172 169 164 165 172 187 198 201 204 206 203 202 203 202 201 202 205 209 210 210 210 210 210 211 213 217 219 220 224 229 232 234 238 241
121 141 155 156 161 170 177 180 178 172 166 162 160 167 189 197 196 196 196 197 199 202 207 209 212 213 212 215 219 220 222 224 224 225 226 226 230 235 238 241 245 247
89 86 97 111 113 126 160 185 196 201 199 195 188 182 193 210 208 208 208 204 206 213 217 217 218 218 219 227 232 229 228 228 226 226 230 236 244 247 247 247 247 247
67 57 42 41 74 86 93 145 176 197 208 218 228 227 224 223 234 246 240 229 227 231 229 224 223 225 231 238 239 236 236 235 233 235 241 247 249 250 251 251 250 247
57 53 48 45 47 46 38 34 35 27 22 280 265 260 246 238 246 257 257 254 251 250 250 247 240 237 240 240 236 237 240 243 244 245 246 249 251 251 251 250 246 240
50 47 43 41 43 45 40 33 26 18 5 334 302 290 281 274 267 260 258 257 254 252 255 257 253 249 248 244 239 238 241 244 247 247 247 250 253 252 248 242 234 228
47 46 41 37 35 35 32 27 24 22 18 6 334 302 290 284 277 269 264 260 258 257 260 262 260 255 252 251 248 247 247 247 246 246 248 249 247 243 239 232 224 219
40 41 39 36 32 27 22 16 12 10 13 15 11 354 333 319 303 284 271 264 264 265 266 266 264 259 255 255 253 251 250 247 242 243 244 240 234 232 231 225 220 215
35 33 32 30 27 24 22 18 11 5 2 3 3 359 353 348 343 329 308 290 279 274 271 269 268 264 257 251 251 250 247 240 236 238 237 228 224 227 229 225 222 217